This demonstration page uses our WeatherBlox Daily Observations layout. Learn more.

Left ArrowRight Arrow

Hourly Observations for March 28, 2018

Temp ( °F °C ) Dew Point ( °F °C ) Humidity (%) Winds ( mph kmh ) Pressure ( in mb ) Visibility ( mi km ) Precip ( " mm )
12:53 am 00:53 Clear 37 2.8 32 0 82 82 SSW 5 7 30.03 1017 10 16 0.00 0.00
1:53 am 01:53 Clear 36 2.2 31 -0.6 82 82 S 3 6 30.02 1017 10 16 0.00 0.00
2:53 am 02:53 Clear 35 1.7 31 -0.6 85 85 S 5 7 29.99 1016 10 16 0.00 0.00
3:53 am 03:53 Clear 34 1.1 31 -0.6 89 89 SSW 6 9 29.96 1015 10 16 0.00 0.00
4:53 am 04:53 Clear 33 0.6 30 -1.1 89 89 S 10 17 29.93 1013 10 16 0.00 0.00
5:53 am 05:53 Clear 32 0 29 -1.7 88 88 SW 3 6 29.93 1014 10 16 0.00 0.00
6:53 am 06:53 Clear 30 -1.1 28 -2.2 92 92 Calm 29.93 1014 10 16 0.00 0.00
7:53 am 07:53 Sunny 32 0 30 -1.1 92 92 S 6 9 29.93 1014 10 16 0.00 0.00
8:53 am 08:53 Sunny 35 1.7 31 -0.6 85 85 S 7 11 29.94 1014 10 16 0.00 0.00
9:53 am 09:53 Sunny 41 5 34 1.1 76 76 SSW 9 15 29.92 1013 10 16 0.00 0.00
10:53 am 10:53 Sunny 48 8.9 36 2.2 63 63 SSW 7 11 29.91 1013 10 16 0.00 0.00
11:53 am 11:53 Sunny 52 11.1 36 2.2 55 55 WSW 8 13 29.90 1013 10 16 0.00 0.00
12:53 pm 12:53 Sunny 55 12.8 37 2.8 51 51 VRB 6 9 29.88 1012 10 16 0.00 0.00
1:53 pm 13:53 Mostly Cloudy 56 13.3 36 2.2 47 47 S 10 17 29.85 1011 10 16 0.00 0.00
2:53 pm 14:53 Mostly Cloudy 58 14.4 39 3.9 50 50 SSW 10 17 29.84 1010 10 16 0.00 0.00
3:53 pm 15:53 Cloudy 58 14.4 36 2.2 44 44 undefined N/A 29.82 1010 10 16 0.00 0.00
4:53 pm 16:53 Cloudy 56 13.3 38 3.3 51 51 NNW 6 9 29.83 1010 10 16 0.00 0.03
5:53 pm 17:53 Cloudy 54 12.2 38 3.3 55 55 N 26 43 29.85 1011 10 16 0.00 0.03
6:53 pm 18:53 Cloudy 51 10.6 37 2.8 59 59 N 21 33 29.89 1012 10 16 0.00 0.00
7:53 pm 19:53 Cloudy 48 8.9 38 3.3 68 68 NNE 15 24 29.93 1013 10 16 0.00 0.00
8:53 pm 20:53 Cloudy 46 7.8 38 3.3 73 73 NNE 16 26 29.96 1015 10 16 0.00 0.00
9:53 pm 21:53 Cloudy 43 6.1 36 2.2 76 76 NNE 16 26 30.00 1016 10 16 0.00 0.00
10:53 pm 22:53 Cloudy 42 5.6 35 1.7 76 76 NNE 14 22 30.01 1016 10 16 0.00 0.00
11:53 pm 23:53 Cloudy 39 3.9 34 1.1 82 82 NNE 16 26 30.02 1017 10 16 0.00 0.00

Powered by AerisWeather